Regional Weather Roundup
Issued by NWS Sioux Falls, SD

Home | Current Version | Previous Version | Graphics & Text | Print | Product List | Glossary On
Versions: 1 2 3 4 5 6 7 8 9 10 11 12 13 14 15 16 17 18 19 20 21 22 23 24 25 26 27 28 29 30 31 32 33 34 35 36 37 38 39 40 41 42 43 44 45 46 47 48 49 50
000
ASUS43 KFSD 262310
RWRFSD

WEATHER ROUNDUP FOR SE SOUTH DAKOTA/SW MINNESOTA/NW IOWA
NATIONAL WEATHER SERVICE SIOUX FALLS SD
600 PM CDT FRI MAY 26 2017

NOTE: "FAIR" INDICATES FEW OR NO CLOUDS BELOW 12,000 FEET WITH NO
SIGNIFICANT WEATHER AND OR OBSTRUCTIONS TO VISIBILITY.


SDZ038>040-050-052>070-270000-
SOUTHEAST SOUTH DAKOTA

CITY           SKY/WX    TMP DP  RH WIND       PRES   REMARKS
BROOKINGS      SUNNY     70  42  36 W14       29.81S
CHAMBERLAIN    SUNNY     73  40  30 W10G18    29.84S
HURON          SUNNY     73  41  31 NW16G25   29.80S
MADISON        FAIR      68  41  37 NW15      29.82F
MITCHELL       SUNNY     75  36  24 NW12      29.82S
SIOUX FALLS    MOSUNNY   72  44  36 NW15      29.82S
WINNER         FAIR      72  42  34 NW9       29.85S
YANKTON        SUNNY     73  44  35 W13       29.84S
$$

MNZ071-072-080-081-089-090-097-098-270000-
SOUTHWEST MINNESOTA

CITY           SKY/WX    TMP DP  RH WIND       PRES   REMARKS
FAIRMONT       SUNNY     77  48  35 W15       29.77R
JACKSON        SUNNY     73  41  31 W13G22    29.80R
LUVERNE        SUNNY     72  36  26 NW13G21   29.81S
MARSHALL       SUNNY     73  44  35 NW18      29.78F
MONTEVIDEO     SUNNY     75  43  31 NW13G18   29.77S
PIPESTONE      SUNNY     72  36  26 W15       29.82R
REDWOOD FALLS  SUNNY     74  44  34 W12       29.77R
TRACY          SUNNY     74  46  36 NW12G17   29.80S
WINDOM         SUNNY     73  43  33 W18       29.79S
WORTHINGTON    SUNNY     73  44  35 W14       29.81S
$$

IAZ001>003-012>014-020>022-031-032-NEZ013-014-SDZ071-270000-
NORTHWEST IOWA

CITY           SKY/WX    TMP DP  RH WIND       PRES   REMARKS
CHEROKEE       SUNNY     77  44  30 W9        29.80S
DENISON        MOSUNNY   79  48  34 N9        29.81S
ESTHERVILLE    CLOUDY    76  48  37 W15       29.77S
LE MARS        SUNNY     75  45  33 NW13      29.82S
ORANGE CITY    SUNNY     73  48  40 NW10      29.82S
SHELDON        SUNNY     75  41  29 NW15      29.80S
SIOUX CITY     SUNNY     77  48  35 NW15      29.81R
SPENCER        SUNNY     77  44  30 NW17G24   29.79S
STORM LAKE     MOSUNNY   77  41  27 NW13G22   29.80S
$$

ABBREVIATIONS USED IN REMARKS
   TC - TEMPERATURE IN CELSIUS
  WCI - WIND CHILL INDEX
   HX - HEAT INDEX
  VSB - VISIBILITY




USA.gov is the U.S. government's official web portal to all federal, state and local government web resources and services.